Location: Byszew
(52.1813°N, 19.2693°E)
Time: 00:13:25
(UTC+00:00)

Cosmos 2322 Rocket - Pass Details

Date: 01 July 2021
Orbit: 833 x 850 km, 71.0° (Epoch: 26 July)

Event Time Altitude Azimuth Distance (km) Brightness Sun altitude
Rises 23:19:52 0° 327° (NNW) 3,424 6.2 -14.4°
Reaches altitude 10° 23:23:08 10° 345° (NNW) 2,483 5.7 -14.4°
Maximum altitude 23:27:04 19° 29° (NNE) 1,938 5.1 -14.3°
Drops below altitude 10° 23:30:57 10° 73° (ENE) 2,469 5.0 -14.2°
Sets 23:34:11 0° 91° (E) 3,398 5.5 -14.1°
